Regional Weather Roundup
Issued by NWS

Home | Current Version | Previous Version | Graphics & Text | Print | Product List | Glossary On
Versions: 1 2 3 4 5 6 7 8 9 10 11 12 13 14 15 16 17 18 19 20 21 22 23 24 25 26 27 28 29 30 31 32 33 34 35 36 37 38 39 40 41 42 43 44 45 46 47 48 49 50
000
ASUS44 KMEG 101000
RWRTN
TENNESSEE HOURLY STATE WEATHER ROUNDUP
NATIONAL WEATHER SERVICE MEMPHIS TN
400 AM CST SAT DEC 10 2016

TNZ002-004-019-021-049-052-054-088>092-101100-
WEST TENNESSEE

CITY           SKY/WX    TMP DP  RH WIND       PRES   REMARKS
MEMPHIS INTL   CLEAR     27  18  69 E5        30.58R WCI  22
NWS MEMPHIS      N/A     21 N/A N/A MISG        N/A
JACKSON        CLEAR     18  16  92 CALM      30.59S
DYERSBURG      CLEAR     21  19  93 CALM      30.58F
UNION CITY     CLEAR     18  16  93 CALM      30.58S
PARIS          CLEAR     14  10  85 CALM      30.56F
LEXINGTON      CLEAR     16  14  93 CALM      30.56F
$$

TNZ008-025-027-028-033-062-065-066-101100-
NORTH MIDDLE TENNESSEE

CITY           SKY/WX    TMP DP  RH WIND       PRES   REMARKS
NASHVILLE      CLEAR     21  15  78 CALM      30.59R
CLARKSVILLE    CLEAR     17  13  84 CALM      30.58F
SMYRNA         CLEAR     19  16  88 CALM      30.60R
CROSSVILLE     CLOUDY    15  12  88 CALM      30.48S
$$

TNZ061-075-076-078-094-096-097-101100-
SOUTH MIDDLE TENNESSEE

CITY           SKY/WX    TMP DP  RH WIND       PRES   REMARKS
TULLAHOMA      CLEAR     16  10  79 CALM      30.53R
WINCHESTER     CLEAR     16  16 100 CALM      30.53S
SHELBYVILLE    CLEAR     18  18 100 CALM      30.56S
$$

TNZ017-018-042-046-047-101100-
NORTHEAST TENNESSEE

CITY           SKY/WX    TMP DP  RH WIND       PRES   REMARKS
TRI CITIES     MOCLDY    16  12  84 CALM      30.50R
$$

TNZ012-013-036-069-073-074-101100-
CENTRAL EAST TENNESSEE

CITY           SKY/WX    TMP DP  RH WIND       PRES   REMARKS
KNOXVILLE      NOT AVBL
OAK RIDGE      CLEAR     20  15  81 CALM      30.55S
GATLINBURG     CLEAR     16  12  86 CALM      30.53R
$$

TNZ083-085-099-101100-
SOUTHEAST TENNESSEE

CITY           SKY/WX    TMP DP  RH WIND       PRES   REMARKS
CHATTANOOGA    CLEAR     24  18  77 CALM      30.55R
$$

SKY/WX REPORTED AS FAIR MEANS FEW OR NO CLOUDS BELOW
12 THOUSAND FEET.




USA.gov is the U.S. government's official web portal to all federal, state and local government web resources and services.